#timestamp,LO_Frequency,Hit,StdDev 
1536548415.4,286046999.7,N
1536548435.2,286047000.7,N
1536548455.0,286046998.1,N
1536548455.9,286046998.1,N
1536548475.8,286047000.9,N
1536548495.6,286047000.7,N
1536548515.4,286046998.5,N
1536548535.3,286047001.2,N
1536548555.1,286047000.9,N
1536548575.9,286047000.6,N
1536548595.7,286047000.6,N
1536548615.5,286047000.7,N
1536548635.4,286046998.4,N
1536548655.2,286046998.6,N
1536548675.0,286046998.1,N
1536548675.9,286046998.1,N
1536548695.8,286046998.3,N
1536548715.6,286046998.4,N
1536548735.5,286046999.4,N
1536548755.3,286047001.1,N
1536548775.1,286046998.5,N
1536548795.9,286046998.3,N
1536548815.7,286046998.5,N
1536548835.5,286047001.1,N
1536548855.4,286046998.6,N
1536548875.2,286046998.2,N
1536548895.1,286046998.2,N
1536548896.0,286046998.2,N
1536548915.8,286047000.8,N
1536548935.6,286047001.0,N
1536548955.5,286046999.7,N
1536548975.3,286047002.1,N
1536548995.1,286047002.8,N
1536549015.9,286047002.3,N
1536549035.7,286047002.0,N
1536549055.6,286047001.6,N
1536549075.4,286047002.5,N
1536549095.2,286047001.8,N
1536549115.1,286047001.4,N
1536549116.0,286047001.4,N
1536549135.8,286047001.8,N
1536549155.6,286047003.9,N
1536549175.5,286047005.7,Y
1536549195.3,286047005.5,P
1536549215.2,286047005.8,N
1536549235.9,286047005.5,N
1536549255.7,286047003.2,N
1536549275.6,286047003.9,N
1536549295.4,286047002.1,N
1536549315.2,286047001.6,N
1536549335.1,286047002.3,N
1536549336.0,286047002.3,N
1536549355.8,286047002.6,N
1536549375.7,286047000.5,N
1536549395.5,286047000.6,N
1536549415.3,286047000.8,N
1536549435.2,286047001.1,N
1536549455.0,286047001.1,N
1536549455.9,286047001.1,N
1536549475.7,286046998.9,N
1536549495.6,286046998.9,N
1536549515.4,286046998.4,N
1536549535.3,286046999.4,N
1536549555.1,286047001.1,N
1536549556.0,286047001.1,N
1536549575.8,286047000.8,N
1536549595.7,286046998.5,N
1536549615.5,286046998.7,N
1536549635.3,286046998.3,N
1536549655.2,286047000.6,N
1536549675.0,286046999.8,N
1536549675.9,286046999.8,N
1536549695.8,286047002.1,N
1536549715.6,286047001.5,N
1536549735.4,286047000.7,N
1536549755.3,286047000.9,N
1536549775.1,286046999.8,N
1536549795.8,286047002.1,N
1536549815.7,286046999.7,N
1536549835.5,286047002.6,N
1536549855.4,286046999.9,N
1536549875.2,286047001.0,N
1536549895.0,286047001.2,N
1536549895.9,286047001.2,N
1536549915.8,286046998.1,N
1536549935.6,286047000.9,N
1536549955.4,286046999.9,N
1536549975.3,286046999.9,N
1536549995.1,286047000.0,N
1536550015.9,286046999.7,N
1536550035.7,286047000.2,N
1536550055.5,286047002.8,N
1536550075.4,286047002.6,N
1536550095.2,286047002.5,N
1536550115.0,286047002.3,N
1536550116.0,286047002.3,N
1536550135.8,286047002.6,N
1536550155.6,286047000.3,N
1536550175.5,286047001.1,N
1536550195.3,286047001.0,N
1536550215.1,286046998.2,N
1536550235.9,286047001.0,N
1536550255.7,286047000.6,N
1536550275.5,286047000.3,N
1536550295.4,286047000.3,N
1536550315.2,286047001.3,N
1536550335.1,286047004.1,Y
1536550336.0,286047004.1,P
1536550355.8,286047002.6,N
1536550375.6,286046998.6,N
1536550395.5,286047000.8,N
1536550415.3,286047001.0,N
1536550435.2,286047001.0,N
1536550455.9,286046998.5,N
1536550475.7,286046999.3,N
1536550495.6,286046996.7,N
1536550515.4,286046996.0,N
1536550535.2,286046995.5,N
1536550555.1,286046997.9,N
1536550556.0,286046997.9,N
1536550575.8,286046996.5,N
1536550595.7,286046997.6,N
1536550615.5,286046995.0,N
1536550635.3,286046997.6,N
1536550655.2,286046997.6,N
1536550675.0,286046997.8,N
1536550675.9,286046997.8,N
1536550695.7,286046998.9,N
1536550715.6,286047000.8,N
1536550735.4,286046999.2,N
1536550755.3,286046999.0,N
1536550775.1,286046998.7,N
1536550776.0,286046998.7,N
1536550795.8,286046998.4,N
1536550815.7,286046999.3,N
1536550835.5,286046999.9,N
1536550855.3,286047000.1,N
1536550875.2,286047000.1,N
1536550895.0,286047002.5,N
1536550895.9,286047002.5,N
1536550915.8,286047002.1,N
1536550935.6,286046999.8,N
1536550955.4,286047000.4,N
1536550975.3,286047000.4,N
1536550995.1,286047000.4,N
1536551015.9,286047000.7,N
1536551035.7,286047002.2,N
1536551055.5,286046999.9,N
1536551075.4,286047000.3,N
1536551095.2,286047000.2,N
1536551115.0,286047002.3,N
1536551115.9,286047002.3,N
1536551135.8,286047001.9,N
1536551155.6,286047002.5,N
1536551175.5,286047001.8,N
1536551195.3,286047002.8,N
1536551215.1,286047000.5,N
1536551235.9,286046998.1,N
1536551255.7,286047000.3,N
1536551275.6,286047002.8,N
1536551295.4,286047001.9,N
1536551315.2,286047004.4,Y
1536551335.1,286047003.7,P
1536551336.0,286047003.7,N
1536551355.8,286047003.0,N
1536551375.7,286047003.1,N
1536551395.5,286047003.8,Y
1536551415.3,286047000.5,P
1536551435.2,286047000.0,N
1536551455.0,286047002.7,N
1536551455.9,286047002.7,N
1536551475.7,286047000.1,N
1536551495.6,286047001.9,N
1536551515.4,286047002.7,N
1536551535.3,286047002.8,N
1536551555.1,286047000.1,N
1536551556.0,286047000.1,N
1536551575.8,286047000.6,N
1536551595.7,286047000.3,N
1536551615.5,286047002.5,N
1536551635.3,286047001.9,N
1536551655.2,286047002.7,N
1536551675.0,286047002.3,N
1536551675.9,286047002.3,N
1536551695.8,286047002.2,N
1536551715.6,286047003.6,Y
1536551735.4,286047000.0,P
1536551755.3,286046999.8,N
1536551775.1,286047002.6,P
1536551795.8,286047001.9,N
1536551815.7,286047001.3,N
1536551835.5,286047003.9,Y
1536551855.4,286047004.4,P
1536551875.2,286047004.2,N
1536551895.0,286047003.3,N
1536551895.9,286047003.3,N
1536551915.8,286047003.6,Y
1536551935.6,286047003.8,P
1536551985.5,286047002.9,E
1536551995.4,286047004.4,N
